NOAA 16 DEB

Satellite information

Favourite Embed

Satellite Type and Status

DEBRISIN ORBIT

Key statistics

Satellite NOAA 16 DEB at a glance.

Uptime

9158

Days in orbit

Revolutions

≈ 14.8

Per day

Orbit

SSO

Sun Synchronous Orbit

Inclination

99.0

Latest

Satellite identification and parameters

Extended collection of information and parameters for NOAA 16 DEB.

Object identification

Identified? True

Debris? True

Object name: NOAA 16 DEB

International designator: 2000-055DS

Object number (NORAD): 41213

Object ID (CCSDS): 41213

Country: UNITED STATES OF AMERICA (US)

Current information (Y/N): Y

RCS size: SMALL

Orbital parameters

Period: 97.027 minutes

Inclination: 98.9641 deg

SMA: 6994.474 km

Apoapsis: 619.653 km

Periapsis: 613.024 km

RAAN: 135.4857 deg

Eccentricy: 0.00047385

Argument of periapsis: 223.5364 deg

Mean anomaly: 136.5473 deg

Mean motion: 14.84124099 rev/day

Mean motion (dot): 0.00092909 rev/day2

B* drag term: 0.010984318 1/REarth

Two-line elements (TLE)

Creation date: Oct. 18, 2025, 2:17 a.m.

Reference frame: TEME

Reference center: EARTH

Epoch: Oct. 17, 2025, 6:17 p.m. UTC

TLE line 0: 0 NOAA 16 DEB

TLE line 1: 1 41213U 00055DS 25290.76206221 .00092909 00000-0 10984-1 0 9997

TLE line 2: 2 41213 98.9641 135.4857 0004738 223.5364 136.5473 14.84124099512773

Live tracking on map

Real-time ground track for satellite NOAA 16 DEB.

In-orbit conjunctions

A list of the most updated potential collisions computed for object NOAA 16 DEB.

Target Orbit TCA Probability of collision Miss distance Type
CZ-6A DEB LEO 2024-12-15 14:49:57 0.0001368296 364.0 (m) DEBRIS
THOR BURNER 2 R/B SSO 2024-08-16 05:30:42 0.0004129246 68.0 (m) ROCKET BODY
IRIDIUM 920 LEO 2024-08-02 18:20:18 0.0001109471 190.0 (m) PAYLOAD

Associated space launch

The NOAA K, L and M POES satellites begin the fifth generation of improved environmental monitoring in support of NOAA missions. The instrument payload has significant improvements and additions/deletions. The instrument changes have effected the spacecraft subsystems and data formats.

NOAA 16 DEB was lifted into orbit during the mission ‘Titan II SLV | NOAA 16’, on board a Titan II SLV space rocket.

The launch took place on Sept. 21, 2000, 10:22 a.m. from Space Launch Complex 4W.

For more information about the launch, click the button.

Launch to space Titan II SLV | NOAA 16
Titan II SLV | NOAA 16

Agency: N/A

Status: Launch Successful

Launch date: Sept. 21, 2000, 10:22 a.m. UTC

Rocket: Titan II SLV

Launch pad: Space Launch Complex 4W

Location: Vandenberg SFB, CA, USA

...

Latest news about this satellite

There are no fresh news available about this satellite. Check back as we update our databases every day.


Newsletter sign-up

Weekly statistics, charts and insights to help you stay on top of the space industry.